Preston, Minnesota, United States (55965)
Lat: 43.67N, Lon: 92.08W
Wx Zone: MNZ095
Local Info
Past Weather Observations for Today

NOTE: This archive is for the closest National Weather Service station to Preston. Information may differ from the station used for current weather conditions.

Time Weather Temperature Dewpoint Humidity Pressure Winds Precip Visibility
16:12
Overcast
68°F / 20°C 41°F / 5°C 38% 30.06 in
(1018 mb)
S 16.1 mph
(S 26 kph)
- 10SM
15:52
Overcast
68°F / 20°C 41°F / 5°C 38% 30.06 in
(1018 mb)
S 20.7 mph
(S 33 kph)
- 10SM
15:32
Overcast
68°F / 20°C 41°F / 5°C 38% 30.06 in
(1018 mb)
S 19.6 mph
(S 32 kph)
- 10SM
15:12
Overcast
68°F / 20°C 39°F / 4°C 35% 30.09 in
(1019 mb)
S 19.6 mph
(S 32 kph)
- 10SM
14:52
Overcast
68°F / 20°C 39°F / 4°C 35% 30.09 in
(1019 mb)
S 23 mph
(S 37 kph)
- 10SM
14:32
Overcast
68°F / 20°C 39°F / 4°C 35% 30.09 in
(1019 mb)
S 19.6 mph
(S 32 kph)
- 10SM
14:12
Overcast
66°F / 19°C 39°F / 4°C 37% 30.09 in
(1019 mb)
S 18.4 mph
(S 30 kph)
- 10SM
13:52
Partly Cloudy
68°F / 20°C 39°F / 4°C 35% 30.09 in
(1019 mb)
S 19.6 mph
(S 32 kph)
- 10SM
13:32
Clear
66°F / 19°C 39°F / 4°C 37% 30.09 in
(1019 mb)
S 24.2 mph
(S 39 kph)
- 10SM
13:12
Clear
66°F / 19°C 39°F / 4°C 37% 30.12 in
(1020 mb)
S 24.2 mph
(S 39 kph)
- 10SM
12:52
Clear
64°F / 18°C 39°F / 4°C 40% 30.12 in
(1020 mb)
S 20.7 mph
(S 33 kph)
- 10SM
12:32
Clear
64°F / 18°C 39°F / 4°C 40% 30.12 in
(1020 mb)
SSE 23 mph
(SSE 37 kph)
- 10SM
12:12
Clear
63°F / 17°C 37°F / 3°C 39% 30.15 in
(1021 mb)
SSE 19.6 mph
(SSE 32 kph)
- 10SM
11:52
Clear
63°F / 17°C 37°F / 3°C 39% 30.12 in
(1020 mb)
S 23 mph
(S 37 kph)
- 10SM
11:32
Clear
61°F / 16°C 36°F / 2°C 39% 30.15 in
(1021 mb)
S 21.9 mph
(S 35 kph)
- 10SM
11:12
Clear
59°F / 15°C 36°F / 2°C 42% 30.15 in
(1021 mb)
S 24.2 mph
(S 39 kph)
- 10SM
10:52
Clear
57°F / 14°C 34°F / 1°C 41% 30.15 in
(1021 mb)
SSE 23 mph
(SSE 37 kph)
- 10SM
10:32
Clear
55°F / 13°C 34°F / 1°C 44% 30.18 in
(1022 mb)
S 23 mph
(S 37 kph)
- 10SM
10:12
Clear
54°F / 12°C 32°F / 0°C 44% 30.18 in
(1022 mb)
SSE 19.6 mph
(SSE 32 kph)
- 10SM
09:52
Clear
50°F / 10°C 30°F / -1°C 47% 30.18 in
(1022 mb)
SSE 20.7 mph
(SSE 33 kph)
- 10SM
09:32
Clear
48°F / 9°C 30°F / -1°C 50% 30.18 in
(1022 mb)
SSE 20.7 mph
(SSE 33 kph)
- 10SM
09:12
Clear
48°F / 9°C 28°F / -2°C 46% 30.21 in
(1023 mb)
SSE 19.6 mph
(SSE 32 kph)
- 10SM
08:52
Clear
46°F / 8°C 28°F / -2°C 50% 30.21 in
(1023 mb)
SSE 16.1 mph
(SSE 26 kph)
- 10SM
08:32
Clear
45°F / 7°C 28°F / -2°C 53% 30.21 in
(1023 mb)
SSE 17.3 mph
(SSE 28 kph)
- 10SM
08:12
Clear
43°F / 6°C 27°F / -3°C 53% 30.24 in
(1024 mb)
SSE 16.1 mph
(SSE 26 kph)
- 10SM
07:53
Clear
41°F / 5°C 27°F / -3°C 57% 30.24 in
(1024 mb)
SE 17.3 mph
(SE 28 kph)
- 10SM
07:32
Clear
39°F / 4°C 27°F / -3°C 61% 30.27 in
(1025 mb)
SE 15 mph
(SE 24 kph)
- 10SM
07:12
Clear
39°F / 4°C 27°F / -3°C 61% 30.24 in
(1024 mb)
SE 15 mph
(SE 24 kph)
- 10SM
06:52
Clear
37°F / 3°C 27°F / -3°C 65% 30.24 in
(1024 mb)
SE 17.3 mph
(SE 28 kph)
- 10SM
06:32
Clear
37°F / 3°C 27°F / -3°C 65% 30.24 in
(1024 mb)
SE 17.3 mph
(SE 28 kph)
- 10SM
06:12
Clear
36°F / 2°C 27°F / -3°C 70% 30.24 in
(1024 mb)
SE 16.1 mph
(SE 26 kph)
- 10SM
05:52
Clear
36°F / 2°C 28°F / -2°C 75% 30.27 in
(1025 mb)
SE 11.5 mph
(SE 19 kph)
- 10SM
05:32
Clear
36°F / 2°C 28°F / -2°C 75% 30.27 in
(1025 mb)
SE 12.7 mph
(SE 20 kph)
- 10SM
05:12
Clear
37°F / 3°C 30°F / -1°C 75% 30.27 in
(1025 mb)
SE 13.8 mph
(SE 22 kph)
- 10SM
04:52
Clear
37°F / 3°C 30°F / -1°C 75% 30.27 in
(1025 mb)
SE 11.5 mph
(SE 19 kph)
- 10SM
04:32
Clear
37°F / 3°C 30°F / -1°C 75% 30.27 in
(1025 mb)
SE 11.5 mph
(SE 19 kph)
- 10SM
04:12
Clear
39°F / 4°C 32°F / 0°C 75% 30.24 in
(1024 mb)
SE 11.5 mph
(SE 19 kph)
- 10SM
03:52
Clear
39°F / 4°C 30°F / -1°C 70% 30.24 in
(1024 mb)
SE 17.3 mph
(SE 28 kph)
- 10SM
03:32
Clear
39°F / 4°C 32°F / 0°C 75% 30.24 in
(1024 mb)
SE 17.3 mph
(SE 28 kph)
- 10SM
03:12
Clear
41°F / 5°C 32°F / 0°C 70% 30.24 in
(1024 mb)
SE 13.8 mph
(SE 22 kph)
- 10SM
02:52
Clear
41°F / 5°C 34°F / 1°C 76% 30.24 in
(1024 mb)
SE 15 mph
(SE 24 kph)
- 10SM
02:32
Clear
41°F / 5°C 32°F / 0°C 70% 30.24 in
(1024 mb)
SE 15 mph
(SE 24 kph)
- 10SM
02:12
Clear
43°F / 6°C 32°F / 0°C 66% 30.24 in
(1024 mb)
SE 13.8 mph
(SE 22 kph)
- 10SM
01:52
Clear
43°F / 6°C 30°F / -1°C 61% 30.24 in
(1024 mb)
SE 11.5 mph
(SE 19 kph)
- 10SM
01:32
Clear
43°F / 6°C 30°F / -1°C 61% 30.24 in
(1024 mb)
SE 11.5 mph
(SE 19 kph)
- 10SM
01:12
Clear
43°F / 6°C 30°F / -1°C 61% 30.24 in
(1024 mb)
SE 12.7 mph
(SE 20 kph)
- 10SM
00:52
Clear
43°F / 6°C 30°F / -1°C 61% 30.24 in
(1024 mb)
SE 10.4 mph
(SE 17 kph)
- 10SM
00:33
Clear
43°F / 6°C 30°F / -1°C 61% 30.24 in
(1024 mb)
SE 10.4 mph
(SE 17 kph)
- 10SM
00:12
Clear
45°F / 7°C 30°F / -1°C 57% 30.24 in
(1024 mb)
SE 8.1 mph
(SE 13 kph)
- 10SM
Time Weather Temperature Dewpoint Humidity Pressure Winds Precip Visibility


Weather for websites

WeatherForYou.com, LLC is not responsible for any damages or problems caused by this service. Current weather conditions are obtained from the closest station including government and personal stations which may have varying degrees of accuracy. Weather forecasts are derived from the NOAA NDFD. Like all things, this site belongs to Jesus Christ... He just trusts me to maintain it. If you have any questions or comments email webmaster@weatherforyou.com

Copyright © 2014, WeatherForYou.com LLC. All rights reserved.